STARLINK-11210, 60116

Orbit data source: Space-Track

STARLINK-11210, 60116 is a payload satellite owned by SpaceX/Seattle (US) in LEO that was launched on Mon, 24 Jun 2024 UTC via an FALCON 9 launch vehicle from the Air Force Western Test Range (AFWTR). Payloads include a variety of satellites, spacecraft, and rockets equipped with specific instruments for various scientific and technological missions. These include communications satellites like Starlink; space stations such as the ISS; scientific satellites like the Hubble; Earth observation satellites from companies like Planet Labs, Umbra, and HawkEye 360; GPS; miniature CubeSats for education and research; and military/defense satellites.

Loading next visibility...
STARLINK-11210 details
Identifier
60116, 2024-118D
Orbit
LEO
Last TLE update19 hours ago
Origin
Flag of USSpaceX/Seattle (US)
ManufacturerSpaceX/Seattle
MissionOperational Commercial Communications
Bus & MotorSTARLINK V2M, Unknown motor
Mass730 kg wet, ~700 kg dry
Launch date (UTC)
2024-06-24 (8 months ago)
Launch vehicle
FALCON 9
Launch site
Air Force Western Test Range (AFWTR)
Object type
Payload
Rocket body
Debris
Shape & HBRBox + 2 Pan, 29 m
Radar Cross Section36.964 m², Large (>1 m²)

Expand to show TLE details & history

TLE from 19 hours ago
0 STARLINK-11210
1 60116U 24118D   25042.83830854  .00000068  00000-0  54286-5 0  9996
2 60116  53.1586 348.1653 0001633 110.7965 249.3227 15.69711282 36602
Epoch: 2025-02-11T20:07Z
Definitive object data (Epoch: 2025-02-11T20:07:09.857Z)
Latitude-0.00012°
Longitude-95.76325°
Altitude361.027 km
Speed7.694 km/s
True Right ascension23h 12m 39s
True Declination0° 00' 00"
Sunlit
Object was in daylight at TLE epoch
Visualization TLE readout
Latitude33.91059°
Longitude-69.51406°
Altitude361.704 km
Speed7.697 km/s
Apparent Right ascension02h 54m 18s
Apparent Declination-2° 06' 54"
Sunlit
Object is in daylight
Visualization observer readout
Local Sidereal Time17:09:40
Azimuth47.821° ENE
Elevation-41.321°
Doppler factor1
Orbital elements
Apogee altitude361.084 km
Perigee altitude358.884 km
Semi-major axis6,738.121 km
Eccentricity0.0001633
Inclination53.1586°
RAAN348.1653°
Arg. of periapsis110.7965°
True anomaly249.30519°
Mean anomaly249.3227°
Eccentric anomaly249.31395°
Mean motion3.92405 °/min
BSTAR0.0000054286
Orbital period91.74 mins
Loading maneuver chart data...
Loading historical data...
Loading historical data...
Loading historical data...
Loading historical data...
Loading historical data...
Loading historical data...
Loading historical data...

STARLINK-11210 Visibility forecast

Observer location: undefined°, undefined

Span
Click to sort rows by Start time (UTC) header in descending order
Start Az.
Max El. time (UTC)
Max El. Az.
Max El.
End time (UTC)
End Az.
5 mins2025-02-12 22:15:33.326Z198.225° SSW2025-02-12 22:17:33.326Z156.544° SSE26.682°2025-02-12 22:20:33.326Z69.416° E
|